KEPLER-15 (SUDORMRF) (47461 NORAD) Tracking and Keplerian Element Data

This shows tracking and keplerian element data for the satellite.

Feedback or suggestion? Click here.




ElementValue
Catalog47461
NameKEPLER-15 (SUDORMRF)
Epoch Orbit1198
Epoch Day101.91647575
Epoch Year2021
RAAN164.1722
Inclination97.4945
Eccentricity0.0007814
Argument of Perigee359.0415
Mean Anonmoly1.0799
Mean Motion15.11744944
Decay Rate1.159E-05
L11 47461U 21006BA 21101.91647575 .00001159 00000-0 71736-4 0 9994
L22 47461 97.4945 164.1722 0007814 359.0415 1.0799 15.11744944 11987

Live tracking and technical data element details for KEPLER-15 (SUDORMRF) (NORAD 47461). KEPLER-15 (SUDORMRF) can be tracked NOW for your location showing map with azimuth and elevation plus other details from your city location.

Track the satellite on the map from your city or location and see movement details for azimuth, elevation, latitude, longitude, range, height, and movement on the map or in text.







IsCatalogInMostPopularTable: catalog: 47461, numindb: 13
Update: records affected: 1



GetName: 47461 KEPLER-15 (SUDORMRF)

Hit Count: updated at: Tue, 13 Apr 2021 03:25:20 GMT